Location: Newark
(48.1333°N, 17.1000°E)
Time: 00:47:16
(UTC+00:00)

N. Korean satellite - Pass Details

Date: 26 January 2020
Orbit: 456 x 505 km, 97.2° (Epoch: 26 February)

Event Time Altitude Azimuth Distance (km) Brightness Sun altitude
Rises 05:16:00 0° 6° (N) 2,535 10.1 -12.0°
Reaches altitude 10° 05:18:08 10° 359° (N) 1,660 9.1 -11.6°
Maximum altitude 05:21:29 40° 288° (WNW) 721 6.9 -11.1°
Drops below altitude 10° 05:24:53 10° 218° (SW) 1,673 9.1 -10.5°
Sets 05:27:01 0° 211° (SSW) 2,558 10.1 -10.2°
